Temperature
24 25 26 26 26 26 24 23 22 22 21 21 21 21 21 21 21 20 20 20 21 20 20 20 19 19 19 19 18 18 18 17 17 17 16 16 16 16 15 15 15 15 15 15
24 26 26 26 26 26 25 24 23 22 21 21 21 21 21 21 20 20 20 20 20 20 20 19 19 19 18 18 18 18 17 17 17 16 16 16 16 16 15 15 15 15 15 15
22 24 24 24 25 25 24 24 23 22 21 20 20 20 20 20 20 20 20 20 20 20 19 19 19 18 18 18 17 17 17 17 16 16 16 16 16 15 15 15 15 15 14 14
21 23 23 23 23 25 24 23 22 22 21 21 21 21 21 21 21 20 20 20 20 20 19 19 19 18 18 17 17 17 17 16 16 16 16 15 15 15 15 15 14 14 14 14
19 21 22 23 24 23 22 22 22 21 21 20 21 20 20 21 21 21 20 20 20 19 19 19 18 18 17 17 17 17 16 16 16 16 15 15 15 15 14 14 14 14 14 14
19 21 21 22 23 24 22 20 21 21 20 20 20 18 18 20 20 20 20 20 20 19 19 18 18 18 17 17 16 16 16 16 16 15 15 15 14 14 14 14 14 14 13 13
19 20 20 21 22 23 21 20 21 21 21 20 19 19 20 20 20 20 20 19 19 19 18 18 18 17 17 17 16 16 16 16 15 15 15 15 14 14 14 14 14 14 13 13
18 19 19 20 21 20 19 21 21 21 21 20 20 20 20 20 19 19 19 19 19 18 18 18 17 17 17 16 16 16 16 15 15 15 14 14 14 14 14 14 13 13 13 13
17 18 18 20 20 21 21 21 21 21 21 21 20 19 19 19 19 19 19 18 18 18 18 17 17 17 16 16 16 15 15 15 15 15 14 14 14 14 14 13 13 13 13 13
17 17 18 20 21 21 21 21 21 21 20 20 19 19 19 19 19 18 18 18 18 17 17 17 16 16 16 16 15 15 15 15 14 14 14 14 14 14 13 13 13 13 13 13
16 16 18 19 20 20 20 21 20 20 20 20 19 19 19 19 18 18 18 18 17 17 16 16 16 16 16 15 15 14 14 14 14 14 14 14 14 13 13 13 13 13 13 13
16 16 16 18 19 20 20 20 20 19 19 19 19 19 18 18 18 18 17 17 17 16 16 16 16 16 15 15 15 14 14 14 14 14 14 13 13 13 13 13 13 13 12 12
18 18 18 18 19 19 19 19 19 19 19 19 18 18 18 18 17 17 17 16 16 16 16 16 15 15 15 15 14 14 14 14 13 13 13 13 13 13 13 13 12 12 12 12
18 18 18 18 18 18 19 19 19 19 19 18 18 18 18 17 17 17 16 16 16 16 15 15 15 15 15 14 14 14 14 13 13 13 13 13 13 13 13 12 12 12 12 12
18 18 18 17 18 18 18 18 18 18 18 17 17 17 17 17 17 16 16 16 15 15 15 15 15 15 14 14 14 13 13 13 13 13 13 13 12 12 12 12 12 12 12 12
17 17 17 17 17 17 17 17 17 17 17 17 17 17 17 16 16 16 16 15 15 15 15 15 14 14 14 14 14 13 13 13 13 13 13 12 12 12 12 12 12 12 12 11
17 17 17 17 17 17 17 17 17 17 17 17 16 16 16 16 15 15 15 15 15 15 14 14 14 14 14 13 13 13 13 13 12 12 13 12 12 12 12 12 12 12 12 11
17 17 17 17 17 16 16 16 16 16 16 16 16 16 16 15 15 15 15 15 15 14 14 14 14 14 13 13 13 13 13 13 13 13 12 12 12 12 12 12 12 12 12 11
16 16 16 16 16 16 16 16 16 16 16 16 16 16 15 15 15 15 15 15 15 14 14 14 13 13 13 13 13 13 13 12 12 12 12 12 12 12 12 12 12 12 12 11
16 16 16 16 16 16 16 15 15 16 16 15 15 15 15 15 15 15 14 14 14 14 14 13 13 13 13 13 13 12 12 12 12 12 12 12 12 12 12 12 12 12 12 11
15 15 15 15 15 15 15 15 15 15 15 15 15 15 15 14 14 14 14 14 14 14 14 13 13 13 13 13 12 12 12 12 12 12 12 12 12 12 12 12 12 12 11 11
15 15 15 15 15 15 14 14 14 14 14 14 14 14 14 14 14 14 14 14 14 13 13 13 13 13 13 12 12 12 12 12 12 12 12 12 12 12 12 12 11 11 11 11
14 14 14 14 14 14 14 14 14 14 14 14 14 14 14 14 14 14 13 13 13 13 13 13 13 13 13 12 12 12 12 12 12 12 12 12 12 12 11 11 11 11 11 11
14 14 14 14 14 14 14 14 14 14 14 14 13 13 13 13 13 13 13 13 13 13 13 13 13 12 12 12 12 12 12 12 12 12 12 12 11 11 11 11 11 11 10 10
13 14 14 14 13 13 13 13 13 13 13 13 13 13 13 13 13 13 13 13 13 13 13 13 12 12 12 12 12 12 12 11 11 11 11 11 11 11 11 11 10 10 10 10
13 13 13 13 13 13 13 13 13 13 13 13 13 13 13 13 13 13 12 12 12 12 12 12 12 12 12 12 11 11 11 11 11 11 11 11 10 10 10 10 10 9 9 9
13 13 13 13 13 13 13 13 13 13 13 12 12 12 12 12 12 12 12 12 12 12 12 12 11 11 11 11 11 11 11 11 11 10 10 10 10 10 9 9 9 9 9 9
Wind_Speed
3 3 1 1 2 1 3 5 6 5 7 9 9 9 9 10 11 10 9 8 8 7 6 5 5 5 6 5 5 5 5 4 3 2 2 2 2 2 2 2 2 1 2 2
3 2 3 3 3 0 2 3 4 4 2 5 6 7 7 9 11 10 9 9 8 8 8 7 7 6 6 5 5 5 5 4 3 3 2 2 2 2 2 1 1 2 2 1
2 3 4 3 4 1 1 2 5 5 6 5 7 8 10 11 11 11 10 10 9 8 8 7 7 7 7 6 5 5 5 4 3 3 2 2 2 2 2 1 1 1 1 1
1 3 2 6 4 2 4 3 2 4 5 8 9 7 7 8 11 10 10 9 8 8 7 6 6 6 6 5 5 5 4 3 3 3 2 2 1 1 1 1 1 1 1 0
3 2 3 5 4 1 3 2 1 5 7 8 9 8 3 3 7 8 8 7 7 7 7 6 6 6 6 5 5 5 4 4 4 3 3 2 2 2 2 1 1 1 1 1
4 4 4 5 6 1 6 1 2 5 9 9 8 5 4 4 6 7 7 6 6 6 7 6 5 6 6 5 4 4 4 4 4 4 4 4 3 2 2 2 2 1 1 1
4 4 4 5 5 3 4 5 2 4 7 8 5 5 5 6 7 7 7 7 7 7 6 5 6 7 6 4 4 4 3 3 3 3 4 4 3 2 2 2 1 1 1 1
3 3 5 5 3 3 5 3 4 5 5 6 6 6 6 7 7 7 6 6 7 6 4 4 5 7 5 4 4 3 3 3 3 3 3 3 3 2 2 2 1 1 0 1
3 4 4 0 3 2 4 6 5 5 5 7 7 5 5 6 6 6 6 5 5 6 5 3 4 6 6 5 4 3 2 2 3 3 2 2 3 3 2 2 2 2 1 2
3 1 0 3 4 4 5 6 6 7 7 8 7 5 5 6 6 6 5 5 5 5 5 3 3 4 5 4 4 4 3 2 2 2 2 2 2 3 3 3 2 2 2 3
2 3 4 5 3 3 4 5 6 7 7 7 8 6 6 6 5 5 5 4 5 5 4 4 3 3 3 4 4 4 2 2 2 2 3 2 1 2 3 4 5 5 4 3
3 4 2 3 3 2 3 3 6 7 6 5 6 6 6 6 5 5 5 4 4 4 3 3 3 3 3 4 4 4 3 2 2 2 2 2 2 0 2 2 3 5 5 4
3 2 2 0 3 3 3 3 4 5 6 5 4 5 6 5 4 4 4 4 3 3 3 3 3 3 3 3 4 4 3 3 2 2 2 2 2 2 1 3 3 2 4 4
2 4 3 2 1 2 2 2 4 4 4 4 4 4 5 4 4 4 4 3 2 2 2 3 4 3 3 3 3 3 2 3 3 3 3 3 3 2 2 2 1 2 2 4
2 3 3 1 3 4 2 2 4 4 3 2 3 4 5 5 5 4 3 3 3 2 1 2 3 3 3 3 3 3 2 2 2 3 2 3 2 2 2 2 2 2 1 2
1 2 3 3 2 2 1 1 2 3 3 2 2 3 4 4 4 4 3 3 4 2 2 2 3 3 3 3 3 3 3 4 4 3 3 3 2 3 3 2 2 3 3 3
3 2 2 1 1 0 1 1 3 4 4 3 3 3 3 4 3 3 2 3 4 3 3 3 4 3 3 3 3 3 3 4 4 3 3 3 3 4 4 4 4 4 4 5
4 5 5 4 3 2 2 2 2 3 4 4 4 4 4 5 5 4 4 3 2 1 2 4 4 3 2 3 3 3 3 3 3 3 3 3 4 4 4 4 5 5 4 3
2 2 2 3 3 3 1 2 2 2 3 3 4 4 4 4 5 4 4 3 3 3 4 4 4 3 3 3 3 2 3 3 3 3 3 4 3 3 3 4 4 4 4 3
1 2 2 2 3 3 2 1 1 1 2 2 2 2 2 2 3 3 3 3 5 5 5 3 3 3 3 3 2 2 3 4 4 3 3 3 3 3 3 3 4 3 3 3
2 2 2 1 2 2 2 2 2 1 1 2 3 3 3 3 3 2 2 3 4 4 4 4 3 3 3 3 3 2 3 4 4 4 3 3 3 3 3 2 2 3 3 3
2 1 1 1 2 1 0 1 1 1 1 1 2 2 2 2 2 2 3 4 4 4 3 3 3 4 4 3 2 3 3 4 3 3 3 3 3 3 3 3 2 2 2 2
1 1 1 1 1 0 1 1 0 1 2 2 2 2 2 2 2 2 2 3 2 3 3 3 4 5 4 3 2 3 3 3 3 3 3 3 3 3 3 3 3 2 2 2
1 0 1 1 1 1 1 1 1 1 1 1 2 2 2 1 1 1 2 2 2 2 2 3 4 4 3 2 2 2 2 2 2 2 2 2 2 2 2 2 2 2 2 2
2 1 0 1 1 1 1 1 1 1 1 0 1 1 1 2 2 1 0 1 1 1 1 1 2 2 1 1 1 1 2 2 2 2 2 2 1 2 2 1 1 1 1 1
2 1 1 1 2 2 1 0 0 0 1 1 1 1 0 1 1 1 1 1 1 1 1 0 1 1 1 1 1 1 1 1 2 2 2 2 2 2 1 1 1 1 1 2
2 2 2 2 2 1 0 1 1 1 1 1 1 0 1 1 2 2 2 1 1 1 0 0 0 1 1 0 1 1 1 1 2 2 2 2 2 2 2 2 2 2 1 1
Wind_Direction
208 211 171 315 280 163 146 175 178 209 192 202 187 173 157 145 141 140 140 140 140 145 142 137 130 130 130 130 128 128 123 129 139 153 150 137 131 119 109 109 100 89 60 37
351 13 39 360 335 164 158 147 147 132 213 218 166 145 141 146 148 151 157 157 152 149 146 146 144 143 142 138 133 129 132 139 146 141 136 146 152 143 130 119 104 87 70 46
288 314 46 336 301 309 106 139 152 182 211 167 141 152 159 160 155 160 161 157 156 157 154 149 150 151 155 153 144 139 142 145 147 143 136 151 160 143 172 170 126 109 97 68
171 39 250 246 273 94 102 90 137 162 158 156 151 154 157 158 160 164 165 163 163 159 156 154 151 151 147 141 139 134 136 144 152 150 152 158 157 173 193 168 148 179 204 203
135 160 272 300 322 71 121 61 69 137 136 136 117 93 87 159 155 163 163 161 159 157 152 151 155 152 141 136 139 139 151 165 173 173 168 175 191 209 205 173 173 207 213 205
136 151 217 257 289 293 108 59 313 134 141 143 122 129 197 166 137 142 143 144 143 141 135 146 159 146 138 145 151 167 181 187 184 179 182 194 204 208 196 176 204 205 224 249
156 188 237 274 303 50 120 223 232 132 136 139 144 173 170 140 128 131 137 137 130 130 138 159 161 147 148 157 181 192 185 179 179 183 190 195 194 193 193 188 189 194 200 256
138 161 244 299 39 120 192 179 108 101 112 119 121 113 120 127 132 132 129 123 122 124 134 159 157 150 154 177 194 180 166 165 179 187 198 188 187 204 201 171 164 192 192 302
171 199 243 294 125 158 132 111 105 109 107 109 108 116 132 135 133 129 131 128 126 133 133 143 159 157 168 184 168 155 157 182 200 195 203 192 188 194 194 182 182 211 208 243
60 327 353 70 66 61 89 106 110 111 112 112 110 114 124 122 124 129 132 132 127 124 129 145 171 168 174 174 163 157 175 204 203 190 203 186 186 186 184 191 194 205 215 235
37 330 13 15 32 61 73 89 97 100 104 115 114 117 130 130 130 132 133 139 138 142 156 173 165 165 165 154 148 153 176 196 196 196 189 183 188 204 200 209 199 191 205 206
210 239 193 276 319 29 90 107 117 110 102 113 122 136 138 141 144 139 133 134 136 144 155 169 159 161 163 154 150 153 169 194 195 197 186 174 169 357 335 258 223 200 196 193
184 206 149 186 12 36 78 100 110 119 134 134 129 142 142 142 143 134 126 126 146 166 172 168 165 169 175 166 161 166 180 193 198 194 185 185 178 176 232 332 340 251 217 210
126 87 54 26 9 7 49 93 94 95 116 136 141 140 134 127 124 126 138 154 153 157 165 165 164 177 181 166 163 173 187 191 184 188 191 191 192 194 187 190 236 310 278 239
106 121 148 108 35 22 28 84 94 94 99 114 139 134 135 139 150 160 163 151 122 121 172 166 170 198 191 165 167 182 184 191 193 193 193 189 192 187 189 195 201 224 273 288
121 104 109 99 80 46 29 91 134 139 138 148 141 142 150 155 159 158 155 148 141 170 207 190 199 217 205 182 181 187 199 202 198 192 195 190 192 192 198 206 214 220 232 247
144 149 120 109 121 74 295 228 177 165 157 154 158 154 141 134 138 147 170 180 169 187 205 203 213 221 213 201 195 204 208 206 202 193 197 198 202 206 206 211 218 226 237 240
175 180 173 175 183 204 258 261 179 162 164 169 158 143 145 159 174 185 188 174 156 206 239 226 220 221 216 200 205 210 203 198 195 198 202 204 210 210 207 211 219 226 240 244
137 145 149 150 151 157 218 246 217 178 150 143 145 165 179 185 184 188 180 169 186 231 248 239 223 214 216 220 215 204 201 198 203 209 208 213 219 220 215 214 221 224 224 221
85 120 131 137 137 143 156 196 175 146 158 140 133 156 184 192 188 191 188 210 223 220 219 221 214 216 213 219 215 205 205 204 209 219 220 215 216 222 223 220 215 213 212 207
72 82 100 117 110 118 136 150 136 160 187 145 144 175 202 214 205 192 196 241 260 229 205 208 203 205 205 213 207 213 221 216 213 216 218 223 222 224 218 211 202 197 198 203
22 31 47 86 89 67 67 124 161 198 185 161 166 174 184 210 217 222 229 226 235 218 202 205 208 207 208 210 207 212 219 220 215 213 209 206 198 197 198 197 201 205 204 206
347 327 104 106 115 213 354 17 261 206 202 204 197 192 195 212 199 185 254 270 234 211 205 212 211 213 214 199 200 201 205 210 210 213 210 202 197 194 192 198 200 194 192 190
319 353 124 127 96 80 29 327 314 287 249 237 221 200 179 171 263 250 213 215 212 210 215 230 233 222 204 195 203 198 200 208 197 190 183 182 187 182 177 181 189 198 193 184
310 322 37 90 98 226 253 278 326 336 5 12 305 268 189 172 187 214 146 154 172 154 173 235 236 206 177 195 213 198 200 201 181 168 158 153 161 165 167 174 187 197 183 178
313 301 265 226 209 225 247 298 315 294 94 81 32 357 43 125 141 135 114 119 120 107 121 194 182 154 146 166 210 203 206 185 154 148 150 154 157 153 152 150 155 157 175 180
354 349 353 357 342 317 352 107 113 61 91 116 112 353 62 77 89 106 117 107 87 82 67 296 178 169 162 200 229 209 182 149 148 151 151 155 157 155 160 160 159 165 182 196
Height
1472 1468 1467 1468 1468 1468 1474 1481 1489 1487 1485 1479 1476 1477 1479 1480 1483 1486 1488 1490 1492 1494 1495 1497 1499 1501 1502 1503 1504 1504 1505 1505 1505 1506 1505 1505 1505 1504 1503 1503 1502 1501 1500 1498
1473 1466 1466 1469 1467 1466 1468 1470 1475 1477 1480 1472 1473 1475 1478 1480 1482 1485 1486 1488 1490 1492 1493 1495 1497 1499 1500 1501 1502 1503 1503 1504 1504 1504 1504 1504 1503 1503 1502 1501 1500 1499 1498 1497
1484 1472 1471 1481 1470 1467 1468 1467 1471 1479 1476 1471 1474 1475 1476 1478 1480 1482 1484 1487 1489 1490 1492 1494 1496 1498 1499 1500 1501 1502 1501 1502 1502 1502 1502 1502 1502 1501 1500 1499 1498 1497 1496 1495
1485 1482 1493 1481 1463 1462 1465 1467 1466 1466 1467 1469 1471 1473 1475 1476 1478 1481 1483 1485 1487 1489 1491 1493 1494 1496 1498 1499 1499 1499 1499 1500 1500 1500 1500 1500 1500 1499 1499 1498 1497 1496 1495 1494
1490 1493 1487 1474 1464 1463 1468 1473 1466 1466 1467 1470 1472 1474 1478 1478 1478 1480 1482 1484 1486 1487 1490 1492 1493 1494 1495 1496 1496 1497 1497 1498 1498 1498 1498 1498 1498 1497 1497 1496 1495 1494 1493 1492
1487 1492 1495 1479 1462 1458 1464 1478 1468 1466 1467 1469 1471 1479 1479 1477 1477 1479 1480 1482 1484 1487 1489 1490 1491 1493 1493 1494 1494 1494 1494 1495 1496 1496 1496 1496 1496 1496 1495 1495 1494 1493 1492 1491
1484 1488 1483 1468 1461 1460 1478 1479 1467 1466 1466 1468 1470 1473 1475 1476 1477 1478 1480 1482 1483 1486 1487 1489 1490 1491 1491 1491 1491 1492 1492 1493 1493 1494 1494 1494 1494 1494 1493 1493 1493 1492 1490 1490
1483 1489 1486 1464 1462 1467 1469 1465 1465 1467 1468 1469 1470 1472 1474 1475 1477 1478 1480 1482 1483 1485 1486 1487 1488 1489 1489 1489 1490 1490 1490 1490 1491 1492 1492 1492 1492 1492 1492 1491 1491 1490 1489 1488
1478 1480 1470 1465 1463 1464 1463 1464 1465 1467 1469 1470 1471 1473 1474 1475 1477 1478 1480 1481 1482 1483 1484 1486 1486 1486 1487 1487 1487 1488 1488 1488 1489 1489 1490 1490 1490 1490 1489 1489 1488 1488 1487 1486
1474 1471 1467 1465 1464 1465 1464 1465 1465 1467 1469 1470 1472 1473 1474 1475 1476 1478 1479 1481 1482 1483 1483 1484 1485 1485 1485 1485 1485 1484 1485 1486 1486 1486 1487 1487 1487 1487 1487 1487 1486 1486 1485 1484
1475 1471 1468 1467 1466 1466 1467 1467 1467 1468 1468 1470 1471 1473 1474 1475 1476 1477 1478 1480 1481 1481 1482 1482 1483 1483 1483 1483 1482 1482 1483 1483 1484 1484 1484 1484 1484 1485 1485 1485 1484 1484 1483 1482
1477 1472 1471 1469 1468 1467 1467 1467 1467 1468 1469 1471 1471 1472 1474 1474 1475 1476 1477 1478 1479 1480 1480 1481 1481 1481 1481 1481 1481 1480 1480 1481 1481 1481 1482 1482 1482 1482 1482 1483 1482 1482 1481 1480
1470 1469 1469 1469 1469 1468 1468 1468 1468 1468 1469 1470 1470 1471 1472 1473 1474 1475 1476 1477 1478 1478 1479 1479 1479 1479 1479 1479 1478 1478 1478 1478 1479 1479 1479 1479 1479 1479 1480 1480 1480 1480 1479 1479
1468 1468 1468 1468 1468 1468 1468 1468 1468 1468 1468 1469 1469 1470 1471 1472 1473 1474 1475 1476 1477 1477 1477 1477 1477 1476 1476 1476 1476 1476 1476 1476 1476 1476 1477 1477 1477 1478 1478 1477 1477 1477 1477 1477
1467 1467 1467 1467 1467 1467 1467 1467 1467 1467 1468 1469 1469 1469 1469 1470 1471 1472 1473 1474 1475 1475 1475 1475 1474 1474 1474 1474 1474 1473 1473 1473 1474 1474 1475 1475 1476 1476 1476 1476 1476 1475 1475 1475
1465 1466 1466 1466 1466 1466 1466 1466 1466 1466 1466 1467 1468 1468 1469 1469 1470 1471 1472 1472 1473 1473 1473 1472 1472 1472 1472 1472 1471 1471 1471 1471 1472 1472 1473 1472 1473 1474 1474 1474 1474 1474 1473 1472
1463 1463 1464 1465 1465 1465 1464 1464 1464 1464 1465 1466 1467 1467 1468 1469 1469 1469 1470 1470 1470 1471 1471 1470 1470 1470 1470 1469 1469 1469 1469 1469 1470 1470 1470 1470 1471 1471 1471 1471 1471 1471 1471 1471
1461 1461 1462 1463 1463 1463 1463 1463 1463 1463 1463 1464 1465 1465 1466 1467 1467 1467 1467 1468 1468 1468 1468 1468 1468 1467 1467 1467 1467 1467 1467 1467 1467 1468 1468 1468 1468 1468 1469 1469 1469 1469 1468 1468
1459 1459 1460 1460 1461 1462 1461 1462 1462 1462 1462 1462 1463 1463 1464 1465 1465 1465 1466 1465 1465 1465 1465 1465 1465 1465 1464 1464 1464 1464 1465 1465 1465 1465 1466 1466 1466 1466 1466 1466 1466 1466 1465 1465
1458 1458 1459 1460 1460 1460 1460 1460 1461 1461 1461 1461 1462 1462 1463 1463 1463 1463 1463 1463 1463 1463 1463 1463 1462 1462 1461 1461 1461 1462 1462 1462 1462 1462 1463 1463 1464 1464 1464 1464 1463 1463 1463 1462
1457 1458 1458 1458 1458 1458 1459 1459 1459 1459 1459 1459 1459 1459 1460 1460 1461 1460 1460 1460 1460 1460 1460 1459 1459 1459 1459 1459 1458 1459 1459 1459 1460 1460 1460 1461 1461 1461 1461 1461 1461 1460 1460 1459
1456 1456 1457 1457 1457 1457 1457 1457 1457 1457 1457 1457 1457 1457 1457 1458 1458 1458 1458 1458 1457 1457 1457 1457 1457 1457 1456 1456 1456 1456 1456 1457 1457 1457 1457 1458 1458 1458 1458 1458 1458 1457 1457 1457
1456 1456 1455 1455 1455 1455 1455 1455 1455 1455 1454 1454 1455 1455 1455 1455 1455 1455 1455 1455 1455 1455 1455 1454 1454 1454 1454 1454 1454 1454 1454 1454 1454 1454 1455 1455 1455 1455 1455 1455 1454 1454 1454 1453
1455 1454 1454 1454 1454 1454 1453 1453 1453 1453 1453 1453 1453 1453 1453 1453 1453 1453 1453 1453 1453 1453 1452 1452 1452 1452 1451 1451 1452 1452 1452 1451 1451 1452 1452 1452 1452 1452 1452 1451 1451 1450 1450 1450
1453 1453 1452 1452 1452 1452 1452 1452 1451 1451 1452 1452 1451 1451 1451 1451 1451 1451 1451 1451 1451 1450 1450 1450 1449 1449 1449 1449 1449 1449 1449 1449 1449 1449 1449 1449 1448 1448 1448 1448 1447 1447 1446 1446
1452 1452 1451 1451 1450 1451 1451 1450 1450 1450 1450 1450 1450 1450 1450 1450 1450 1450 1449 1449 1449 1448 1448 1448 1448 1448 1447 1447 1447 1447 1447 1447 1447 1446 1446 1446 1445 1445 1445 1444 1444 1443 1443 1442
1451 1450 1450 1449 1449 1449 1449 1449 1449 1449 1449 1449 1449 1449 1449 1449 1448 1448 1448 1448 1447 1447 1447 1447 1447 1446 1446 1445 1445 1445 1445 1445 1444 1444 1443 1443 1442 1442 1442 1441 1441 1440 1440 1439